Lid_Strength_Index
2 2 2 1 1 1 1 3 3 2 2 2 2 2 3 3 3 3 4 4 3 4 4 5 5 6 7 7 7 7 8 8 8 7 6 7 7 8 8 7 6 6 5
2 2 2 2 2 2 2 2 2 2 2 1 1 2 2 3 4 3 3 3 3 4 5 6 6 6 7 8 8 10 10 9 9 10 10 10 10 9 8 7 6 5 7
1 3 3 3 3 2 1 1 1 2 2 2 3 6 7 7 7 6 4 4 5 6 6 8 8 9 10 11 11 11 11 10 11 12 12 10 9 9 9 8 8 8 6
2 3 3 2 2 2 1 1 2 2 5 7 7 8 8 8 9 8 6 5 7 8 8 8 9 11 12 11 12 12 12 12 12 12 12 12 11 10 9 10 9 8 9
2 2 2 3 2 2 1 2 3 6 6 6 7 8 10 10 9 8 7 6 7 8 8 8 9 8 8 9 11 12 12 12 12 13 13 12 11 9 10 8 8 7 7
2 2 2 1 1 2 3 2 5 6 6 6 7 8 9 9 9 7 7 7 8 10 10 10 10 11 11 9 7 6 9 12 13 13 11 13 11 10 7 8 9 9 10
2 2 2 2 2 2 2 4 5 6 7 8 8 9 9 10 9 8 7 8 10 11 11 12 12 11 11 11 9 8 8 6 7 11 12 10 9 10 8 8 9 9 8
2 3 3 2 3 3 3 4 5 6 7 8 9 9 9 10 9 9 9 10 11 11 12 13 13 12 11 11 11 11 11 10 10 8 8 8 7 7 6 6 7 7 7
3 4 4 4 4 4 5 4 5 6 8 9 9 9 10 10 9 10 10 11 11 12 11 9 11 11 9 8 11 12 12 11 8 7 6 6 6 5 5 6 7 8 8
5 5 5 5 6 6 6 6 5 6 7 8 9 9 9 11 10 10 11 12 10 9 9 9 8 9 8 8 11 13 13 11 9 8 7 7 6 6 5 5 6 8 8
5 6 6 6 7 8 8 8 7 8 9 9 10 10 11 10 10 9 8 9 10 10 9 10 9 8 8 8 9 12 10 8 7 8 8 7 7 7 7 7 5 6 7
6 7 7 8 9 10 11 9 5 5 7 9 10 11 10 11 9 9 8 8 8 9 9 9 9 8 9 9 9 7 7 7 7 7 8 8 8 7 6 6 5 5 5
7 8 9 9 9 9 10 10 8 8 8 10 11 12 12 11 11 9 8 8 7 8 7 7 9 9 8 8 7 7 7 7 7 7 8 8 7 6 5 5 5 6 6
7 9 8 8 9 9 9 9 10 11 12 12 12 13 12 11 10 9 8 8 8 8 8 8 7 8 8 8 8 7 7 7 6 7 7 6 6 6 6 6 6 7 7
7 8 8 8 9 9 10 10 11 11 11 12 12 12 11 9 9 9 9 9 10 9 9 8 9 9 9 9 8 7 7 6 6 6 6 6 6 6 7 6 7 7 8
7 8 7 7 8 9 9 9 9 9 9 9 9 9 8 9 9 9 9 9 10 9 8 10 10 10 10 10 9 8 7 7 7 6 7 7 8 8 8 8 8 8 9
7 6 6 6 8 8 9 9 9 9 8 9 9 9 9 9 9 9 9 10 9 9 9 9 10 10 10 10 9 9 8 7 6 6 7 7 8 8 9 9 9 9 9
6 5 5 5 6 6 7 7 8 8 8 8 8 8 9 8 8 9 9 7 7 7 8 9 9 9 9 9 9 9 8 7 7 7 8 8 8 9 9 9 9 10 10
6 6 6 7 7 7 7 7 7 7 9 8 7 8 8 8 8 7 7 6 8 8 8 8 8 8 8 9 8 8 8 8 8 8 8 8 8 8 9 9 10 12 11
6 7 7 8 7 7 7 7 7 8 8 8 8 8 7 7 7 6 6 6 7 7 7 7 7 7 7 8 8 8 8 8 8 9 9 8 8 8 9 9 9 9 9
6 7 10 8 8 8 7 7 7 8 9 9 8 8 12 7 7 7 6 6 7 7 7 7 7 7 7 8 8 8 8 8 8 8 8 8 8 8 8 8 8 9 9
6 8 8 9 9 8 7 7 7 8 8 8 7 7 11 7 7 7 7 7 6 6 6 6 6 7 8 8 8 8 9 9 8 7 7 8 7 7 8 8 8 8 8
7 8 8 8 8 9 7 7 7 8 8 8 7 7 7 7 7 7 7 7 6 6 6 6 6 7 8 9 9 8 9 10 9 8 8 8 8 7 7 8 7 8 8
7 7 7 7 7 7 8 8 7 9 8 7 7 7 7 7 7 7 7 7 6 6 7 8 8 8 9 9 10 9 9 10 9 8 6 6 6 8 6 6 6 7 7
7 7 7 7 7 7 7 7 7 7 7 7 7 6 7 6 6 7 7 6 7 6 6 7 8 9 9 10 10 11 12 13 11 12 6 4 5 6 6 6 6 7 7
6 6 7 7 7 7 7 7 7 7 7 7 7 6 6 6 6 6 6 6 6 7 7 7 8 9 10 10 11 13 13 12 10 11 6 5 5 6 6 6 6 7 7